Location: Great Snoring
(52.8667°N, 0.8833°E)
Time: 02:45:36
(UTC+00:00)

Tiangong - Visible Passes

Search period start: 19 January 2026 00:00
Search period end: 29 January 2026 00:00
Orbit: 378 x 393 km, 41.5° (Epoch: 18 January)

Date Brightness Start Highest point End Pass type
(mag) Time Alt. Az. Time Alt. Az. Time Alt. Az.
21 Jan 0.8 07:03:28 10° SSW 07:04:32 11° S 07:05:34 10° SSE visible
22 Jan 0.7 06:04:29 10° SSW 06:05:24 11° S 06:06:18 10° SSE visible
23 Jan 0.7 06:41:29 10° SSW 06:42:11 11° S 06:42:54 10° S visible
24 Jan 0.6 05:42:31 11° S 05:42:59 11° S 05:43:59 10° SSE visible
